AirNav   Air Wisconsin pilot careers
 
 1033 users online  

ND33 Dawson Mediport Heliport
Dawson, North Dakota, USA

GOING TO DAWSON?


FAA INFORMATION EFFECTIVE 24 MAY 2018

Location

FAA Identifier: ND33
Lat/Long: 46-52-36.0000N / 099-45-08.4000W
46-52.600000N / 099-45.140000W
46.8766667 / -99.7523333
(estimated)
Elevation: 1750 ft. / 533 m (estimated)
Variation: 08E (2000)
Time zone: UTC -5 (UTC -6 during Standard Time)
Zip code: 58428

Heliport Operations

Heliport use: Private use. Permission required prior to landing
Activation date: 11/2002
Control tower: no
ARTCC: MINNEAPOLIS CENTER
FSS: GRAND FORKS FLIGHT SERVICE STATION
Attendance: UNATNDD
Segmented circle: no

Nearby radio navigation aids

VOR radial/distance  VOR name  Freq  Var
BISr068/38.1BISMARCK VOR/DME116.5012E

Heliport Services

Runway Information

Helipad H1

Dimensions: 30 x 30 ft. / 9 x 9 m
Surface: asphalt
Traffic pattern: leftleft

Heliport Ownership and Management from official FAA records

Ownership: Privately-owned
Owner: DAWSON FIRST RESPONDER TEM
P.O. BOX 214
DAWSON, ND 58428
Phone 701-327-4434
Manager: MISTY ISZLER
PO BOX 201, P.O. BOX 214
DAWSON, ND 58428
Phone (701) 214-9109

Instrument Procedures

There are no published instrument procedures at ND33.

Some nearby airports with instrument procedures:

KBIS - Bismarck Municipal Airport (41 nm W)
46D - Carrington Municipal Airport (42 nm NE)
KJMS - Jamestown Regional Airport (44 nm E)
7L2 - Linton Municipal Airport (44 nm SW)
Y19 - Mandan Municipal Airport (47 nm W)
 
Loc | Ops | Rwys | IFR | FBO | Links
Com | Nav | Svcs | Stats | Notes

Mandan Aero Center
 
Area around ND33 (Dawson Mediport Heliport)
 
Road maps at: MapQuest Bing Google
 
Aerial photo
No photo
 
Sectional chart

 
Airport distance calculator
Flying to Dawson Mediport Heliport? Find the distance to fly.

From to ND33

Sunrise and sunset
Times for 19-Jun-2018
 Local
(UTC-5)
 Zulu
(UTC)
Morning civil twilight05:0510:05
Sunrise05:4510:45
Sunset21:3602:36
Evening civil twilight22:1503:15

Current date and time
Zulu (UTC)  20-Jun-2018 02:18:19
Local (UTC-5)  19-Jun-2018 21:18:19
 
METAR
KBIS 
41nm W 
200152Z 03010KT 10SM CLR 23/12 A3001 RMK AO2 SLP158 T02280117
K46D 
42nm NE 
200155Z AUTO 05006KT 10SM CLR 22/10 A3005 RMK AO2
K7L2 
44nm SW 
200155Z AUTO 03004KT 10SM 21/13 A3002 RMK AO2
KJMS 
45nm E 
200156Z AUTO 06005KT 10SM CLR 22/13 A3000 RMK AO2 SLP153 T02170128
KY19 
47nm W 
200155Z AUTO 02006KT 10SM CLR 21/13 A3003 RMK AO2
TAF
KBIS 
41nm W 
192159Z 1922/2018 08006KT P6SM BKN060 OVC080 FM200300 05008KT P6SM SCT050 BKN070
KJMS 
45nm E 
191739Z 1918/2018 07009KT P6SM FEW050 BKN070 FM200200 03004KT P6SM SCT050
NOTAMs
Click for the latest NOTAMs
NOTAMs are issued by the DoD/FAA and will open in a separate window not controlled by AirNav.

 

 
 

Would you like to see your business listed on this page?

 If your business provides an interesting product or service to pilots, flight crews, aircraft, or users of the Dawson Mediport Heliport, you should consider listing it here.  To start the listing process, click on the button below
 
Add a business
 

Other Pages about Dawson Mediport Heliport

Update a link
 
Copyright © AirNav, LLC. All rights reserved. Privacy Policy  Contact